DW7259 Weather Reports


Display with metric or nautical units.
time (UTC)temp
F
wind
direction
speed
MPH
gust
MPH
rain 1hr
in
rain 24hr
in
rain mn
in
humidity
%
barometer
mb
20260901143052 56 146 0.0 1.0 0.00 0.00 0.00 49 1002.4
20260901141553 56 176 2.0 6.0 0.00 0.00 0.00 45 1002.2
20260901140048 54 176 5.0 7.0 0.00 0.00 0.00 46 1002.2
20260901134543 54 177 0.0 1.0 0.00 0.00 0.00 48 1002.1
20260901133039 54 178 5.0 7.0 0.00 0.00 0.00 47 1001.9
20260901131538 54 178 3.0 6.0 0.00 0.00 0.00 48 1001.8
20260901130035 54 178 1.0 9.0 0.00 0.00 0.00 47 1001.8
20260901124534 56 190 2.0 6.0 0.00 0.00 0.00 45 1001.6
20260901123039 56 191 2.0 4.0 0.00 0.00 0.00 45 1001.7
20260901121532 56 192 5.0 8.0 0.00 0.00 0.00 45 1001.5
20260901120025 57 360 0.0 0.0 0.00 0.00 0.00 43 1001.6
20260901114522 57 360 0.0 0.0 0.00 0.00 0.00 42 1001.4
20260901113023 58 360 0.0 0.0 0.00 0.00 0.00 41 1001.3
20260901111521 58 360 0.0 0.0 0.00 0.00 0.00 42 1001.3
20260901110022 58 360 0.0 0.0 0.00 0.00 0.00 42 1001.2
20260901104527 58 360 0.0 0.0 0.00 0.00 0.00 44 1001.2
20260901103018 58 360 0.0 3.0 0.00 0.00 0.00 43 1001.2
20260901101515 59 360 4.0 7.0 0.00 0.00 0.00 42 1001.2
20260901100012 59 360 0.0 0.0 0.00 0.00 0.00 42 1001.3
20260901094513 59 360 0.0 0.0 0.00 0.00 0.00 42 1001.2
20260901093010 60 360 0.0 0.0 0.00 0.00 0.00 41 1001.1
20260901091510 60 360 0.0 0.0 0.00 0.00 0.00 41 1001.2
20260901090008 60 360 0.0 0.0 0.00 0.00 0.00 43 1001.2
20260901084507 60 360 0.0 0.0 0.00 0.00 0.00 42 1001.2
20260901083010 61 360 0.0 4.0 0.00 0.00 0.00 40 1001.4
20260901081504 61 360 3.0 5.0 0.00 0.00 0.00 41 1001.2
20260901080104 62 360 0.0 3.0 0.00 0.00 0.00 40 1001.3
20260901074614 62 360 0.0 0.0 0.00 0.00 0.00 39 1001.4
20260901073057 63 360 0.0 5.0 0.00 0.00 0.00 38 1001.2
20260901071554 63 360 0.0 6.0 0.00 0.00 0.00 38 1001.2
20260901070059 64 360 2.0 6.0 0.00 0.00 0.00 37 1001.3
20260901064551 65 360 0.0 4.0 0.00 0.00 0.00 37 1001.3
20260901063058 65 360 0.0 0.0 0.00 0.00 0.00 37 1001.3
20260901061551 66 360 0.0 3.0 0.00 0.00 0.00 37 1001.3
20260901060049 65 146 0.0 1.0 0.00 0.00 0.00 41 1001.3
20260901054550 65 146 0.0 1.0 0.00 0.00 0.00 41 1001.4
20260901053112 66 146 0.0 2.0 0.00 0.00 0.00 40 1001.4
20260901051606 67 146 0.0 0.0 0.00 0.00 0.00 39 1001.5
20260901050048 67 146 0.0 6.0 0.00 0.00 0.00 39 1001.4
20260901044547 68 146 1.0 8.0 0.00 0.00 0.00 37 1001.3
20260901043050 68 146 0.0 5.0 0.00 0.00 0.00 36 1001.2
20260901041558 69 145 2.0 6.0 0.00 0.00 0.00 35 1001.1
20260901040046 69 145 0.0 5.0 0.00 0.00 0.00 33 1000.9
20260901034544 70 145 0.0 5.0 0.00 0.00 0.00 33 1000.6
20260901033044 70 146 1.0 5.0 0.00 0.00 0.00 35 1000.5
20260901031554 71 148 2.0 8.0 0.00 0.00 0.00 34 1000.2
20260901030043 72 134 0.0 4.0 0.00 0.00 0.00 30 1000.1
20260901024542 72 32 0.0 5.0 0.00 0.00 0.00 31 1000.0
20260901023042 73 44 1.0 7.0 0.00 0.00 0.00 31 999.9
20260901021541 74 96 2.0 11.0 0.00 0.00 0.00 30 999.8
20260901020041 75 42 1.0 10.0 0.00 0.00 0.00 30 999.5
20260901014545 76 38 3.0 8.0 0.00 0.00 0.00 29 999.4
20260901013040 76 40 1.0 12.0 0.00 0.00 0.00 30 999.4
20260901011539 77 45 1.0 7.0 0.00 0.00 0.00 30 999.4
20260901010038 78 46 0.0 3.0 0.00 0.00 0.00 30 999.3
20260901004541 79 46 0.0 11.0 0.00 0.00 0.00 29 999.5
20260901003037 79 148 1.0 6.0 0.00 0.00 0.00 28 999.6
20260901001549 80 151 0.0 5.0 0.00 0.00 0.00 28 999.6
20260901000035 80 151 0.0 7.0 0.00 0.00 0.00 27 999.6
20260831234536 81 138 1.0 11.0 0.00 0.00 0.00 25 999.7
20260831233033 83 5 1.0 11.0 0.00 0.00 0.00 24 999.7
20260831231532 85 360 1.0 14.0 0.00 0.00 0.00 19 999.9
20260831230032 85 143 4.0 9.0 0.00 0.00 0.00 19 1000.0
20260831224529 85 146 3.0 12.0 0.00 0.00 0.00 19 1000.1
20260831223028 84 360 2.0 6.0 0.00 0.00 0.00 19 1000.2
20260831221526 85 360 0.0 6.0 0.00 0.00 0.00 18 1000.4
20260831220024 86 162 3.0 15.0 0.00 0.00 0.00 17 1000.7
20260831214524 87 360 1.0 6.0 0.00 0.00 0.00 18 1000.8
20260831213020 86 275 1.0 5.0 0.00 0.00 0.00 18 1001.1
20260831211521 86 360 3.0 8.0 0.00 0.00 0.00 18 1001.2
20260831210019 85 360 5.0 8.0 0.00 0.00 0.00 19 1001.4
20260831204520 85 360 4.0 8.0 0.00 0.00 0.00 18 1001.5
20260831203021 86 360 0.0 7.0 0.00 0.00 0.00 19 1001.6
20260831201512 85 360 4.0 9.0 0.00 0.00 0.00 19 1002.0
20260831200011 85 360 0.0 5.0 0.00 0.00 0.00 21 1002.4
20260831194505 82 360 3.0 7.0 0.00 0.00 0.00 22 1002.7
20260831193004 82 360 3.0 6.0 0.00 0.00 0.00 21 1003.0
20260831191601 83 360 4.0 8.0 0.00 0.00 0.00 21 1003.2
20260831190059 81 360 2.0 5.0 0.00 0.00 0.00 23 1003.4
20260831184552 80 360 4.0 10.0 0.00 0.00 0.00 23 1003.6
20260831183050 80 360 5.0 7.0 0.00 0.00 0.00 23 1003.7
20260831181551 78 360 3.0 7.0 0.00 0.00 0.00 26 1003.8
20260831180043 77 360 2.0 7.0 0.00 0.00 0.00 29 1004.0
20260831174536 75 360 2.0 5.0 0.00 0.00 0.00 31 1004.2
20260831173032 74 360 3.0 7.0 0.00 0.00 0.00 31 1004.3
20260831171528 74 46 2.0 5.0 0.00 0.00 0.00 31 1004.3
20260831170028 73 360 1.0 4.0 0.00 0.00 0.00 34 1004.4
20260831164522 70 360 0.0 3.0 0.00 0.00 0.00 36 1004.4
20260831163014 69 46 0.0 3.0 0.00 0.00 0.00 37 1004.5
20260831161510 69 360 0.0 2.0 0.00 0.00 0.00 37 1004.6
20260831160005 67 360 0.0 0.0 0.00 0.00 0.00 38 1004.7
20260831154503 65 360 0.0 0.0 0.00 0.00 0.00 41 1004.9
20260831153057 65 360 0.0 0.0 0.00 0.00 0.00 42 1004.8
20260831151559 63 41 0.0 0.0 0.00 0.00 0.00 44 1004.9
20260831150053 62 290 0.0 0.0 0.00 0.00 0.00 45 1004.9
20260831144544 60 286 0.0 0.0 0.00 0.00 0.00 46 1005.0